Location: Alpha Ridge Park
(39.3209°N, 76.9128°W)
Time: 16:50:43
(UTC-05:00)

Tiangong - Visible Passes

Search period start: 22 January 2022 00:00
Search period end: 01 February 2022 00:00
Orbit: 383 x 386 km, 41.5° (Epoch: 22 January)

Date Brightness Start Highest point End Pass type
(mag) Time Alt. Az. Time Alt. Az. Time Alt. Az.
24 Jan 3.9 19:18:47 10° SSW 19:19:10 12° SSW 19:19:10 12° SSW visible
25 Jan 3.5 18:20:34 10° SSE 18:21:40 11° SE 18:22:35 10° SE visible
26 Jan 2.1 18:55:28 10° SW 18:58:08 33° SSE 18:58:08 33° SSE visible
27 Jan 2.9 17:56:19 10° SSW 17:58:43 20° SSE 18:01:08 10° E visible
27 Jan 3.4 19:32:07 10° WSW 19:33:35 25° WSW 19:33:35 25° WSW visible
28 Jan 1.3 18:32:23 10° WSW 18:35:30 56° SSE 18:36:45 31° E visible
29 Jan 1.5 19:09:18 10° W 19:12:03 59° WNW 19:12:03 59° WNW visible
30 Jan 1.0 18:09:23 10° WSW 18:12:34 87° SSE 18:15:05 15° ENE visible
30 Jan 4.0 19:46:23 10° WNW 19:47:18 17° WNW 19:47:18 17° WNW visible
31 Jan 1.3 18:46:24 10° W 18:49:32 57° N 18:50:18 42° NE visible
